Location: Gazon
(48.1318°N, 1.2708°W)
Time: 22:11:20
(UTC+00:00)

COSMOS 2406 - Pass Details

Date: 18 September 2020
Orbit: 844 x 863 km, 71.0° (Epoch: 25 October)

Event Time Altitude Azimuth Distance (km) Brightness Sun altitude
Rises 20:46:14 0° 334° (NNW) 3,415 7.3 -25.2°
Reaches altitude 10° 20:48:45 10° 338° (NNW) 2,476 6.3 -25.6°
Maximum altitude 20:54:20 57° 57° (ENE) 988 3.3 -26.3°
Enters shadow 20:54:21 57° 58° (ENE) 988 3.3 -26.3°
